Tracking 30918 objects as of 2-Jul-2025
HD Live streaming from Space Station
objects crossing your sky now

SL-12 R/B(2)

Track SL-12 R/B(2) now!


NORAD ID: 33111
Int'l Code: 2008-033D
Perigee: 35,675.8 km
Apogee: 35,929.9 km
Inclination: 9.9 °
Period: 1,436.6 minutes
Semi major axis: 42173 km
RCS: 2.244 m2 (large)
Launch date: June 27, 2008
Source: Commonwealth of Independent States (former USSR) (CIS)
Launch site: TYURATAM MISSILE AND SPACE COMPLEX (TTMTR)

Note: This is a ROCKET BODY
Your satellite tracking list
STARLINK-30120
Track 1 satellite(s)




NASA's NSSDC Master Catalog

Two Line Element Set (TLE):
1 33111U 08033D   25182.82983970 -.00000155  00000-0  00000-0 0  9999
2 33111   9.8875  43.9870 0030119 332.4551 284.0090  1.00239351 62292
Source of the keplerian elements: AFSPC